User: anonymous   Login
Location: Unspecified
(0.0000°N, 0.0000°E)
Time: 22:28:39
(UTC+02:00)
Language:

YAOGAN 1 - Orbit

View from above orbital plane
View from above orbital plane
View from above satellite
View from above satellite

Ground track
Ground track

The orbit data is extracted from the following two-line orbital elements,

1 29092U 06015A   16239.90373720 +.00000102 +00000-0 +19284-4 0  9997
2 29092 098.0062 244.9435 0001474 088.9504 271.1878 14.82695754558654
Epoch (UTC): 26 August 2016 21:41:22
Eccentricity: 0.0001474
inclination: 98.0062°
perigee height: 620 km
apogee height: 622 km
right ascension of ascending node: 244.9435°
argument of perigee: 88.9504°
revolutions per day: 14.82695754
mean anomaly at epoch: 271.1878°
orbit number at epoch: 55865

The dashed part of the orbit path shows where the satellite is in the earth's shadow,  

DLR